Regional Weather Roundup
Issued by NWS

Home | Current Version | Previous Version | Graphics & Text | Print | Product List | Glossary On
Versions: 1 2 3 4 5 6 7 8 9 10 11 12 13 14 15 16 17 18 19 20 21 22 23 24 25 26 27 28 29 30 31 32 33 34 35 36 37 38 39 40 41 42 43 44 45 46 47 48 49 50
000
ASUS43 KMKX 151721
RWRWI

WISCONSIN REGIONAL WEATHER ROUNDUP
NATIONAL WEATHER SERVICE MILWAUKEE/SULLIVAN WI
1200 PM CDT TUE APR 15 2014

NOTE: "FAIR" INDICATES FEW OR NO CLOUDS BELOW 12,000 FEET WITH NO
SIGNIFICANT WEATHER AND/OR OBSTRUCTIONS TO VISIBILITY.

WIZ001-002-006>008-014>016-023>028-151800-
NORTHWEST WISCONSIN

CITY           SKY/WX    TMP DP  RH WIND       PRES   REMARKS
SUPERIOR ARPT  SUNNY     26   6  41 W8        30.14F WCI  18
ASHLAND        CLOUDY    23   5  46 VRB7      30.12S WCI  15
HAYWARD        MOSUNNY   25   4  40 VRB3      30.09F
SIREN          SUNNY     27   2  33 W7G18     30.13S WCI  20
RICE LAKE      NOT AVBL
LADYSMITH      PTSUNNY   28   9  44 W9        30.11S WCI  19
EAU CLAIRE     CLOUDY    29   8  41 W10       30.13S WCI  20
MENOMONIE      MOSUNNY   29   8  40 W8        30.14S WCI  21
NEW RICHMOND   MOSUNNY   28   6  38 NW6       30.14F WCI  22
OSCEOLA        SUNNY     29   6  38 W6        30.17F WCI  22
$$

WIZ003>005-009-010-017-018-151800-
NORTH CENTRAL WISCONSIN

CITY           SKY/WX    TMP DP  RH WIND       PRES   REMARKS
WOODRUFF       PTSUNNY   28  13  53 NW5G17    30.03R WCI  22
RHINELANDER    CLOUDY    23   8  52 W15       30.02S WCI  10
EAGLE RIVER    PTSUNNY   25   5  42 W12G21    30.00S WCI  14
LAND O LAKES   LGT SNOW  24  12  61 NW8G18    30.01R WCI  15
PHILLIPS       CLOUDY    24   7  48 NW8       30.05S WCI  16
TOMAHAWK       CLOUDY    24   7  48 NW9G17    30.04S WCI  14
MEDFORD        CLOUDY    24  12  59 W9        30.06F WCI  14
MERRILL        CLOUDY    26  10  50 CALM      30.05S
$$

WIZ029-030-035-036-043>047-151800-
CENTRAL WISCONSIN

CITY           SKY/WX    TMP DP  RH WIND       PRES   REMARKS
WAUSAU         CLOUDY    25  13  60 NW15G21   30.06S WCI  13
MOSINEE        CLOUDY    25  12  58 W12G18    30.08S WCI  14
MARSHFIELD     PTSUNNY   27  14  58 W14       30.08S WCI  16
STEVENS POINT  CLOUDY    25  10  53 W8        30.10S WCI  16
WAUPACA        PTSUNNY   30  12  47 W9G16     30.11S WCI  22
WAUTOMA        FLURRIES  28  19  69 W13       30.12S WCI  18
WISC RAPIDS    PTSUNNY   27  12  53 NW10G20   30.11S WCI  17
CAMP DOUGLAS   PTSUNNY   28  16  59 W8        30.12S WCI  20
$$

WIZ011>013-019>022-031-037>040-048>050-151800-
NORTHEAST WISCONSIN

CITY           SKY/WX    TMP DP  RH WIND       PRES   REMARKS
ANTIGO         PTSUNNY   24   9  52 NW10G18   30.03F WCI  14
STURGEON BAY   MOSUNNY   27  10  50 W7        30.08F WCI  19
GREEN BAY      PTSUNNY   29  15  56 W7        30.10S WCI  22
MANITOWOC      MOSUNNY   31  14  49 NW13      30.11S WCI  21
APPLETON       PTSUNNY   28  10  47 W15       30.10S WCI  17
CLINTONVILLE   CLOUDY    28  14  54 NW12      30.09S WCI  18
OSHKOSH        PTSUNNY   28  12  51 W9        30.11S WCI  19
$$

WIZ032>034-041-042-053>061-151800-
SOUTHWEST WISCONSIN

CITY           SKY/WX    TMP DP  RH WIND       PRES   REMARKS
LA CROSSE      CLOUDY    32  14  47 NW10      30.16S WCI  24
SPARTA         CLOUDY    30  14  51 W8        30.15S WCI  22
VIROQUA        PTSUNNY   29  14  53 NW10      30.11S WCI  20
BOSCOBEL       LGT RAIN  33  11  39 W7        30.15F WCI  27
PRAIRIE DU CHI PTSUNNY   33  13  43 W5        30.16S WCI  28
PLATTEVILLE    FAIR      31  19  60 W10       30.15S WCI  23
$$

WIZ056-057-062-063-064-067-068-151800-
SOUTH CENTRAL WISCONSIN

CITY           SKY/WX    TMP DP  RH WIND       PRES   REMARKS
BARABOO/DELLS  CLOUDY    28  15  57 NW9       30.12S WCI  19
LONE ROCK      PTSUNNY   31  16  54 NW7       30.15S WCI  24
WATERTOWN      PTSUNNY   31  11  43 W9G16     30.12S WCI  22
MADISON        PTSUNNY   32  12  43 W12       30.13S WCI  23
MIDDLETON      PTSUNNY   33  13  44 NW13      30.12S WCI  24
MONROE         CLOUDY    32  11  41 W8G17     30.11F WCI  25
JANESVILLE     PTSUNNY   34  12  40 W14G20    30.13S WCI  24
$$

WIZ051-052-058>065-066-070>072-151800-
SOUTHEAST WISCONSIN

CITY           SKY/WX    TMP DP  RH WIND       PRES   REMARKS
MILWAUKEE      PTSUNNY   31  10  41 NW10G21   30.14R WCI  22
WAUKESHA       PTSUNNY   28  14  54 NW13      30.13S WCI  18
MILWAUKEE/TIMM PTSUNNY   30  10  43 N14       30.13R WCI  20
RACINE         CLOUDY    31  15  52 N10       30.15R WCI  22
BURLINGTON     MOSUNNY   29  14  54 NW10      30.13S WCI  20
KENOSHA        PTSUNNY   32  15  49 NW10      30.13S WCI  24
FOND DU LAC    MOSUNNY   29  12  49 W9        30.12R WCI  20
SHEBOYGAN      CLOUDY    29  14  53 NW10      30.11S WCI  20
WEST BEND      CLOUDY    30   9  40 NW9       30.11S WCI  22
JUNEAU         PTSUNNY   30   8  39 W7        30.12F WCI  23
$$

LSZ147-162-151800-
LAKE SUPERIOR

STATION/POSITION TIME  TEMP    WIND        PRES    WAVE
                       AIR SEA DIR/SP/G            HT/PER
                 (UTC) (F)     (DEG/KT/KT) (MB)    (FT/S)
DEVILS ISLAND    1700   24     270/  8/ 10 1021.2F
PORT WING        1640   22     260/  8/ 11 1020.7S
SAXON HARBOR     1600          350/  8/ 13 1020.3R
$$

LMZ867-665-643>646-151800-
LAKE MICHIGAN

STATION/POSITION TIME  TEMP    WIND        PRES    WAVE
                       AIR SEA DIR/SP/G            HT/PER
                 (UTC) (F)     (DEG/KT/KT) (MB)    (FT/S)
NORTHPORT PIER   1600   24     320/  8/ 11 1019.0R
SISTER BAY       1623   41        CALM       N/A
KEWAUNEE LAKESHO 1600   26     320/  9/ 13 1019.8R
SHEBOYGAN LAKESH 1700   29     300/ 11/ 14 1020.9R
PORT WASHINGTON  1600   30     320/  7/ 11 1020.7R
MILWAUKEE LAKESH 1700   30     320/  7/ 16   N/A
KENOSHA   LAKESH 1700   29     300/  9/ 18   N/A
$$

TC  - TEMPERATURE IN CELSIUS
VSB - VISIBILITY IN STATUTE MILES
WCI - WIND CHILL INDEX
HX  - HEAT INDEX




USA.gov is the U.S. government's official web portal to all federal, state and local government web resources and services.